Home > Weather > Ajax > Past weeks

Flag for Canada Weather for the Past 2 Weeks in Ajax, Ontario, Canada

Now
68 °F

Passing clouds.


Feels Like: 68 °F
Forecast: 44 / 67 °F
Wind: 12 mph from Northeast

Location: Toronto Buttonville

Current Time: May 6, 2016 at 3:21:03 PM

Latest Report: May 6, 2016 at 2:00 PM


Visibility: 15 mi

Pressure: 29.85 "Hg

Humidity: 30%

Dew Point: 36 °F

Location of AjaxLocation

Historic Weather in Ajax — Graph

°F

Ajax Temperature Yesterday

Maximum temperature yesterday: 63 °F (at 5:00 PM)
Minimum temperature yesterday: 46 °F (at 1:00 AM)
Average temperature yesterday: 53 °F

High & Low Weather Summary for the Past Weeks

 TemperatureHumidityPressure
High68 °F (May 6, 1:00 PM)94% (Apr 21, 11:00 PM)30.23 "Hg (Apr 21, 11:00 PM)
Low32 °F (Apr 27, 4:00 AM)22% (Apr 23, 5:00 PM)29.71 "Hg (May 4, 4:00 PM)
Average46 °F62%29.98 "Hg
* Reported Apr 21 2:00 PM — May 6 2:00 PM, Ajax, Weather by CustomWeather, © 2016

Note: Actual official high and low records may vary slightly from our data, if they occured in-between our weather recording intervals... More about our weather records

Advertising

Ajax Weather History for the Previous 24 Hours

Scroll right to see more
 ConditionsComfort  
Time TempWeatherWind HumidityBarometerVisibility
2:00 PM
Fri, May 6
68 °FPassing clouds.12 mph30%29.85 "Hg15 mi
1:00 PM68 °FPassing clouds.13 mph30%29.88 "Hg15 mi
12:00 PM66 °FPassing clouds.13 mph32%29.90 "Hg15 mi
11:00 AM66 °FPassing clouds.12 mph32%29.89 "Hg15 mi
10:00 AM61 °FPassing clouds.9 mph45%29.90 "Hg15 mi
9:00 AM55 °FPassing clouds.9 mph59%29.90 "Hg15 mi
8:00 AM52 °FPassing clouds.9 mph62%29.88 "Hg15 mi
7:00 AM48 °FPassing clouds.7 mph71%29.87 "Hg15 mi
6:00 AM45 °FPassing clouds.8 mph76%29.86 "Hg15 mi
5:00 AM46 °FClear.7 mph71%29.85 "Hg15 mi
4:00 AM48 °FClear.2 mph66%29.85 "Hg15 mi
3:00 AM48 °FClear.10 mph66%29.83 "Hg15 mi
2:00 AM50 °FClear.9 mph62%29.83 "Hg15 mi
1:00 AM50 °FClear.9 mph62%29.83 "Hg15 mi
12:00 AM52 °FPassing clouds.9 mph58%29.83 "Hg15 mi
11:00 PM
Thu, May 5
52 °FPassing clouds.9 mph62%29.83 "Hg15 mi
10:00 PM54 °FPassing clouds.10 mph54%29.82 "Hg15 mi
9:00 PM57 °FScattered clouds.8 mph55%29.82 "Hg15 mi
8:00 PM61 °FPartly sunny.13 mph52%29.81 "Hg15 mi
7:00 PM63 °FBroken clouds.7 mph49%29.80 "Hg15 mi
6:00 PM63 °FBroken clouds.12 mph49%29.80 "Hg15 mi
5:00 PM63 °FBroken clouds.13 mph49%29.80 "Hg15 mi
4:00 PM59 °FScattered showers. Partly sunny.12 mph55%29.82 "Hg15 mi
3:00 PM61 °FPartly sunny.6 mph55%29.82 "Hg15 mi
Weather by CustomWeather, © 2016

See weather overviewHow to use our weather pages